Location: Unspecified
(0.0000°N, 0.0000°E)
Time: 01:59:04
(UTC+02:00)

AO-40 - Visible Passes

Search period start: 25 June 2016 00:00
Search period end: 05 July 2016 00:00
Orbit: 964 x 58856 km, 8.1° (Epoch: 23 June)

Date Brightness Start Highest point End Pass type
(mag) Time Alt. Az. Time Alt. Az. Time Alt. Az.
25 Jun ? 06:28:56 23° W 06:34:39 70° N 21:21:34 10° W visible
26 Jun ? 01:08:44 10° WSW 01:13:34 17° WSW 01:13:34 17° WSW visible
29 Jun ? 06:02:35 36° WNW 06:06:32 70° N 21:15:50 10° W visible
30 Jun ? 00:38:06 10° W 00:47:25 24° WSW 00:47:25 24° WSW visible
03 Jul ? 05:36:14 53° WNW 05:38:29 69° N 21:11:11 10° W visible
04 Jul ? 00:06:28 10° W 00:21:14 32° WSW 00:21:14 32° WSW visible
